User: anonymous   Login
Location: Unspecified
(0.0000°N, 0.0000°E)
Time: 15:28:53
(UTC+00:00)
Language:

COSMOS 2429 - Orbit

View from above orbital plane
View from above orbital plane
View from above satellite
View from above satellite

Ground track
Ground track

The orbit data is extracted from the following two-line orbital elements,

1 32052U 07038A   17228.55162388 +.00000042 +00000-0 +28730-4 0  9998
2 32052 082.9779 063.2976 0037218 243.2776 116.4569 13.74891896498246
Epoch (UTC): 16 August 2017 13:14:20
Eccentricity: 0.0037218
inclination: 82.9779°
perigee height: 954 km
apogee height: 1009 km
right ascension of ascending node: 63.2976°
argument of perigee: 243.2776°
revolutions per day: 13.74891896
mean anomaly at epoch: 116.4569°
orbit number at epoch: 49824

The dashed part of the orbit path shows where the satellite is in the earth's shadow,  

DLR